Address 0xc34c6ab4fa671354662afdc7044ce07f5f24e2f7 1

 
 
Txn Hash Method
Block
From
To
Value [Txn Fee]
0x0892dc84673b9d1e99061f216f65c464454b593c4d2af45c53ee11d628eb78faSwap Exact Token...106985472021-09-07 5:18:5015 days 5 hrs ago0xc34c6ab4fa671354662afdc7044ce07f5f24e2f7OUT PancakeSwap: Router v20 BNB0.00095689
0x96e29e93ef693c6459faaafa7a22769c75db6ad29ab6142cd96d2fa3ba276c6bClaim Xp Rewards106192672021-09-04 10:52:0218 days 4 mins ago0xc34c6ab4fa671354662afdc7044ce07f5f24e2f7OUT CryptoBlades: Gameplay0 BNB0.00099327
0x7755ab3023bd991fcdb9633d7331e3bbe0b9a9ba435e364407479ad1c95cf7b7Fight106192622021-09-04 10:51:4718 days 4 mins ago0xc34c6ab4fa671354662afdc7044ce07f5f24e2f7OUT CryptoBlades: Gameplay0 BNB0.000756855
0x1212ca74bd096dd661ee9d4d29a8e850994f682e86b034d6495f86828ba83d0eFight106192502021-09-04 10:51:1118 days 5 mins ago0xc34c6ab4fa671354662afdc7044ce07f5f24e2f7OUT CryptoBlades: Gameplay0 BNB0.00075751
0x88d878dbecc105789fdc59f1cd04c595ad40886265e6f6d7c1262e9321a1879fFight106192422021-09-04 10:50:4718 days 5 mins ago0xc34c6ab4fa671354662afdc7044ce07f5f24e2f7OUT CryptoBlades: Gameplay0 BNB0.000758415
0xe3d5f7e71ded2a3dd4856dc7e13bc0e9d4a36dddfd3c3f4918bbed243106d12cFight106192332021-09-04 10:50:2018 days 6 mins ago0xc34c6ab4fa671354662afdc7044ce07f5f24e2f7OUT CryptoBlades: Gameplay0 BNB0.000753915
0xbe6f38d2ecdd1b26cbd9381ba30e68ea656afc510120d13f9b4bd6bc132099f7Fight105856042021-09-03 6:34:5419 days 4 hrs ago0xc34c6ab4fa671354662afdc7044ce07f5f24e2f7OUT CryptoBlades: Gameplay0 BNB0.00075245
0x8caa5011bf7c606bdeb0ed4e57878415e6cd30c16ea3856d208c575b80e20a17Fight105855962021-09-03 6:34:3019 days 4 hrs ago0xc34c6ab4fa671354662afdc7044ce07f5f24e2f7OUT CryptoBlades: Gameplay0 BNB0.000756325
0xf05df000fc7ddf4ede724730a2776b5c82444e76178eed506b55b591f58e04d6Fight105855882021-09-03 6:34:0619 days 4 hrs ago0xc34c6ab4fa671354662afdc7044ce07f5f24e2f7OUT CryptoBlades: Gameplay0 BNB0.00075907
0xa239ab93118952aa51b49d50a4eccfd71d5011be83ce02bcd339e04ea8a38536Fight105855762021-09-03 6:33:3019 days 4 hrs ago0xc34c6ab4fa671354662afdc7044ce07f5f24e2f7OUT CryptoBlades: Gameplay0 BNB0.000752755
0xc053bd5cf96e0740d63cc5739f103a8d5c561d9ea3c716212706f9214ba4c6f0Fight104134572021-08-28 5:17:3125 days 5 hrs ago0xc34c6ab4fa671354662afdc7044ce07f5f24e2f7OUT CryptoBlades: Gameplay0 BNB0.00083246
0xb13c987c27628fe044d1e0e6cd01e5729a8e824a9cd7da131296c76baa2af45bFight104134502021-08-28 5:17:1025 days 5 hrs ago0xc34c6ab4fa671354662afdc7044ce07f5f24e2f7OUT CryptoBlades: Gameplay0 BNB0.000753565
0x25d6c87bc78e7981e80aee365fda165f0ff106c06b3fc458c7943041f8ebd11aFight104134382021-08-28 5:16:3425 days 5 hrs ago0xc34c6ab4fa671354662afdc7044ce07f5f24e2f7OUT CryptoBlades: Gameplay0 BNB0.00075781
0xf1a20c41c77f0357c8e94f8a2c5a935a9d1e44f81255e53b3a5f4ce051c8b9b2Fight104134252021-08-28 5:15:5425 days 5 hrs ago0xc34c6ab4fa671354662afdc7044ce07f5f24e2f7OUT CryptoBlades: Gameplay0 BNB0.000753965
0x9a6dd2a96d614b2b58695b4a47c1432ada788dd91116557ece7ca83d4f90b36bFight103324662021-08-25 8:44:3328 days 2 hrs ago0xc34c6ab4fa671354662afdc7044ce07f5f24e2f7OUT CryptoBlades: Gameplay0 BNB0.000709785
0x1644889e8b457e9e76033fe9c5594819aaf3bfec16a549b07c68940b74e4744aFight103324592021-08-25 8:44:1228 days 2 hrs ago0xc34c6ab4fa671354662afdc7044ce07f5f24e2f7OUT CryptoBlades: Gameplay0 BNB0.00082666
0xadffd79dc554c3aac96eab5fdca5295a4a8e6690f6a8983cdfe202c2f5178477Fight103324522021-08-25 8:43:5128 days 2 hrs ago0xc34c6ab4fa671354662afdc7044ce07f5f24e2f7OUT CryptoBlades: Gameplay0 BNB0.00082638
0x823734bf9b5598400a5d84f714a5203d24e51c833226d8e328ffd85b58905697Fight103324452021-08-25 8:43:3028 days 2 hrs ago0xc34c6ab4fa671354662afdc7044ce07f5f24e2f7OUT CryptoBlades: Gameplay0 BNB0.00082695
0x68aee47d55d0a912c7ed53f61fe52ec47f2d119c399f449cb8b1afb76fb7f91dClaim Xp Rewards103034462021-08-24 8:24:4529 days 2 hrs ago0xc34c6ab4fa671354662afdc7044ce07f5f24e2f7OUT CryptoBlades: Gameplay0 BNB0.00113962
0xa556d15e1da54699688bb6fed152eba23907924b2f1644455551f502ffd19fbeFight103034332021-08-24 8:24:0629 days 2 hrs ago0xc34c6ab4fa671354662afdc7044ce07f5f24e2f7OUT CryptoBlades: Gameplay0 BNB0.000750425
0x8671ea0a79470e824a30b6decd24439bc057927304317560e49818b0c3da18aaFight103034262021-08-24 8:23:4529 days 2 hrs ago0xc34c6ab4fa671354662afdc7044ce07f5f24e2f7OUT CryptoBlades: Gameplay0 BNB0.000747185
0xdc9b68278b0842dbfe78964a07f96c2f3553ed46830c59082274aec92abdd55dFight103034192021-08-24 8:23:2429 days 2 hrs ago0xc34c6ab4fa671354662afdc7044ce07f5f24e2f7OUT CryptoBlades: Gameplay0 BNB0.00075259
0x5a1c9ffbc3da16aa90fdecc601697d27813e5aaaa00a3f8ad5f34c27cb01084cFight103034092021-08-24 8:22:5429 days 2 hrs ago0xc34c6ab4fa671354662afdc7044ce07f5f24e2f7OUT CryptoBlades: Gameplay0 BNB0.00075074
0xa3431717589873cc9484ccbf7e3500024c06e584b6c0cbe9e8c83bb9dced778aFight102757542021-08-23 9:09:1830 days 1 hr ago0xc34c6ab4fa671354662afdc7044ce07f5f24e2f7OUT CryptoBlades: Gameplay0 BNB0.000745365
0x155789512c6e18341852923cd0d09c0d228bb1796c83ad677bc835cd21a12aaeFight102757462021-08-23 9:08:5430 days 1 hr ago0xc34c6ab4fa671354662afdc7044ce07f5f24e2f7OUT CryptoBlades: Gameplay0 BNB0.00075166
[ Download CSV Export 
Latest 5 internal transactions
Parent Txn Hash Block From To Value
0x04d1dd3c5e1ecac79291bae3d82cc9ce88c612b243b2dc975e4f847e7b30416595563842021-07-28 20:34:2255 days 14 hrs ago PancakeSwap: Router v20xc34c6ab4fa671354662afdc7044ce07f5f24e2f70.322041142885886757 BNB
0x20f53b39e88c5576cd2aab30089dd53d59dbb5282afa0ae33d5a3616a2e202b384387182021-06-19 17:50:1894 days 17 hrs ago 0xcde540d7eafe93ac5fe6233bee57e1270d3e330f0xc34c6ab4fa671354662afdc7044ce07f5f24e2f70.792214572928908474 BNB
0xad00d2893d1e205942124d1401750e3636352f4521a199d2f4786569993bead766713152021-04-18 10:45:40157 days 11 mins ago PancakeSwap: Router0xc34c6ab4fa671354662afdc7044ce07f5f24e2f70.597126668643681418 BNB
0xdc2de7166feddd66bc248f2a8ca0ab75af9dbd90e8e960d1237f3cc7c95f5f8466712812021-04-18 10:43:58157 days 12 mins ago PancakeSwap: Router0xc34c6ab4fa671354662afdc7044ce07f5f24e2f70.581156633264620611 BNB
0x0d4698bb5ae9bc537ea124ddd21bc78bd7fb69ceaa7d2462681b3a13a7eea18a64683542021-04-11 9:22:00164 days 1 hr ago PancakeSwap: Router0xc34c6ab4fa671354662afdc7044ce07f5f24e2f70.000003319806611451 BNB
[ Download CSV Export 
Loading

Contract Name:
0 BNB

Compiler Version
0

Optimization Enabled:
0 BNB

Other Settings:
-NA-
Block Transaction Gas Used Reward
Age Block Fee Address BC Fee Address Voting Power Jailed Incoming
Block Uncle Number Difficulty Gas Used Reward
Loading
Loading
Make sure to use the "Vote Down" button for any spammy posts, and the "Vote Up" for interesting conversations.